| time (UTC) | temp F | wind direction | speed knots | gust knots | rain 1hr in | rain 24hr in | rain mn in | humidity % | barometer mb |
| 20260505234539 | 38 | 53 | 1.7 | 0.0 | 0.00 | 0.00 | 0.00 | 81 | 1001.6 |
| 20260505233027 | 38 | 61 | 2.6 | 0.0 | 0.00 | 0.00 | 0.00 | 81 | 1001.6 |
| 20260505231522 | 38 | 61 | 1.7 | 0.0 | 0.00 | 0.00 | 0.00 | 80 | 1001.4 |
| 20260505230044 | 39 | 48 | 1.7 | 0.0 | 0.00 | 0.00 | 0.00 | 80 | 1001.4 |
| 20260505224533 | 39 | 63 | 1.7 | 0.0 | 0.00 | 0.00 | 0.00 | 79 | 1001.3 |
| 20260505223022 | 39 | 67 | 1.7 | 0.0 | 0.00 | 0.00 | 0.00 | 79 | 1001.3 |
| 20260505221514 | 39 | 53 | 1.7 | 0.0 | 0.00 | 0.00 | 0.00 | 78 | 1001.2 |
| 20260505220011 | 39 | 53 | 0.9 | 0.0 | 0.00 | 0.00 | 0.38 | 78 | 1001.2 |
| 20260505214514 | 39 | 53 | 0.9 | 0.0 | 0.00 | 0.00 | 0.38 | 77 | 1001.2 |
| 20260505213009 | 40 | 53 | 1.7 | 0.0 | 0.00 | 0.00 | 0.38 | 76 | 1001.0 |
| 20260505211516 | 40 | 49 | 1.7 | 0.0 | 0.00 | 0.00 | 0.38 | 76 | 1001.1 |
| 20260505210007 | 40 | 38 | 0.9 | 0.0 | 0.00 | 0.00 | 0.38 | 76 | 1000.9 |
| 20260505204506 | 40 | 37 | 0.9 | 0.0 | 0.00 | 0.00 | 0.38 | 76 | 1000.8 |
| 20260505203009 | 40 | 37 | 0.0 | 0.0 | 0.00 | 0.00 | 0.38 | 75 | 1000.6 |
| 20260505201505 | 41 | 36 | 0.9 | 0.0 | 0.00 | 0.00 | 0.38 | 75 | 1000.7 |
| 20260505200004 | 41 | 36 | 1.7 | 0.0 | 0.00 | 0.00 | 0.38 | 74 | 1000.6 |
| 20260505194504 | 41 | 30 | 0.9 | 0.0 | 0.00 | 0.00 | 0.38 | 72 | 1000.5 |
| 20260505193003 | 42 | 31 | 1.7 | 0.0 | 0.00 | 0.00 | 0.38 | 69 | 1000.4 |
| 20260505191503 | 42 | 227 | 0.0 | 0.0 | 0.00 | 0.00 | 0.38 | 67 | 1000.5 |
| 20260505190001 | 42 | 227 | 0.0 | 0.0 | 0.00 | 0.00 | 0.38 | 65 | 1000.5 |
| 20260505184505 | 42 | 227 | 0.0 | 0.0 | 0.00 | 0.00 | 0.38 | 64 | 1000.3 |
| 20260505183100 | 43 | 227 | 0.0 | 0.0 | 0.00 | 0.00 | 0.38 | 64 | 1000.3 |
| 20260505181558 | 43 | 227 | 0.0 | 0.0 | 0.00 | 0.00 | 0.38 | 63 | 1000.1 |
| 20260505174558 | 44 | 227 | 0.9 | 0.0 | 0.00 | 0.00 | 0.38 | 61 | 1000.0 |
| 20260505173113 | 45 | 228 | 1.7 | 0.0 | 0.00 | 0.00 | 0.38 | 57 | 1000.0 |
| 20260505171623 | 44 | 223 | 0.9 | 0.0 | 0.00 | 0.00 | 0.38 | 59 | 1000.0 |
| 20260505170055 | 44 | 228 | 0.9 | 0.0 | 0.00 | 0.00 | 0.38 | 61 | 999.9 |
| 20260505164601 | 44 | 236 | 1.7 | 0.0 | 0.00 | 0.00 | 0.38 | 59 | 999.8 |
| 20260505163054 | 45 | 252 | 2.6 | 0.0 | 0.00 | 0.00 | 0.38 | 59 | 999.8 |
| 20260505161555 | 46 | 236 | 1.7 | 0.0 | 0.00 | 0.00 | 0.38 | 55 | 999.6 |
| 20260505153047 | 46 | 283 | 0.9 | 0.0 | 0.00 | 0.00 | 0.38 | 57 | 999.6 |
| 20260505151545 | 45 | 248 | 1.7 | 0.0 | 0.00 | 0.00 | 0.37 | 56 | 999.6 |
| 20260505150105 | 46 | 242 | 0.9 | 0.0 | 0.00 | 0.00 | 0.37 | 56 | 999.6 |
| 20260505124525 | 43 | 242 | 3.5 | 0.0 | 0.00 | 0.00 | 0.33 | 78 | 999.4 |
| 20260505123014 | 42 | 296 | 2.6 | 0.0 | 0.00 | 0.00 | 0.31 | 84 | 999.2 |
| 20260505121523 | 39 | 294 | 1.7 | 0.0 | 0.00 | 0.00 | 0.30 | 87 | 999.3 |
| 20260505120009 | 39 | 290 | 2.6 | 0.0 | 0.00 | 0.00 | 0.28 | 89 | 999.3 |
| 20260505114508 | 38 | 288 | 3.5 | 0.0 | 0.00 | 0.00 | 0.28 | 87 | 999.2 |
| 20260505113008 | 38 | 236 | 4.3 | 0.0 | 0.00 | 0.00 | 0.28 | 86 | 999.0 |
| 20260505111504 | 40 | 241 | 2.6 | 0.0 | 0.00 | 0.00 | 0.26 | 87 | 998.7 |
| 20260505101600 | 39 | 271 | 0.0 | 0.0 | 0.00 | 0.00 | 0.19 | 92 | 998.3 |
| 20260505100137 | 37 | 290 | 0.0 | 0.0 | 0.00 | 0.00 | 0.18 | 91 | 998.3 |
| 20260505094558 | 36 | 296 | 0.9 | 0.0 | 0.00 | 0.00 | 0.16 | 92 | 998.3 |
| 20260505093057 | 35 | 300 | 2.6 | 0.0 | 0.00 | 0.00 | 0.14 | 91 | 998.4 |
| 20260505091617 | 35 | 264 | 2.6 | 0.0 | 0.00 | 0.00 | 0.12 | 90 | 998.6 |
| 20260505090101 | 37 | 248 | 2.6 | 0.0 | 0.00 | 0.00 | 0.10 | 89 | 998.1 |
| 20260505084552 | 37 | 248 | 0.9 | 0.0 | 0.00 | 0.00 | 0.07 | 91 | 997.9 |
| 20260505083053 | 37 | 190 | 0.0 | 0.0 | 0.00 | 0.00 | 0.06 | 92 | 997.9 |
| 20260505081551 | 36 | 190 | 0.0 | 0.0 | 0.00 | 0.00 | 0.02 | 92 | 997.6 |
| 20260505080052 | 35 | 190 | 0.0 | 0.0 | 0.00 | 0.00 | 0.02 | 92 | 997.5 |
| 20260505074550 | 34 | 189 | 0.0 | 0.0 | 0.00 | 0.00 | 0.02 | 92 | 997.5 |
| 20260505073057 | 34 | 190 | 0.0 | 0.0 | 0.00 | 0.00 | 0.02 | 91 | 997.7 |
| 20260505071548 | 34 | 191 | 0.0 | 0.0 | 0.00 | 0.00 | 0.02 | 91 | 997.7 |
| 20260505070047 | 34 | 191 | 2.6 | 0.0 | 0.00 | 0.00 | 0.02 | 90 | 997.8 |
| 20260505064544 | 34 | 213 | 4.3 | 0.0 | 0.00 | 0.00 | 0.02 | 90 | 997.6 |
| 20260505063049 | 35 | 242 | 6.1 | 0.0 | 0.00 | 0.00 | 0.02 | 88 | 997.4 |
| 20260505061545 | 36 | 244 | 7.8 | 0.0 | 0.00 | 0.00 | 0.02 | 89 | 997.6 |
| 20260505060039 | 34 | 106 | 0.9 | 0.0 | 0.00 | 0.00 | 0.02 | 88 | 997.3 |
| 20260505054553 | 35 | 104 | 2.6 | 0.0 | 0.00 | 0.00 | 0.02 | 87 | 997.2 |
| 20260505053039 | 36 | 171 | 4.3 | 0.0 | 0.00 | 0.00 | 0.02 | 86 | 997.1 |
| 20260505051540 | 38 | 209 | 4.3 | 0.0 | 0.00 | 0.00 | 0.02 | 85 | 997.0 |
| 20260505041543 | 37 | 186 | 3.5 | 0.0 | 0.00 | 0.00 | 0.02 | 85 | 997.0 |
| 20260505040029 | 37 | 216 | 6.1 | 0.0 | 0.00 | 0.00 | 0.02 | 85 | 997.0 |
| 20260505034528 | 37 | 246 | 6.1 | 0.0 | 0.00 | 0.00 | 0.02 | 85 | 997.0 |
| 20260505033027 | 37 | 246 | 2.6 | 0.0 | 0.00 | 0.00 | 0.01 | 87 | 996.9 |
| 20260505031531 | 36 | 246 | 1.7 | 0.0 | 0.00 | 0.00 | 0.01 | 87 | 996.8 |
| 20260505030026 | 36 | 203 | 2.6 | 0.0 | 0.00 | 0.00 | 0.01 | 87 | 996.8 |
| 20260505024525 | 37 | 250 | 3.5 | 0.0 | 0.00 | 0.00 | 0.01 | 87 | 996.8 |
| 20260505023024 | 37 | 238 | 3.5 | 0.0 | 0.00 | 0.00 | 0.01 | 86 | 996.9 |
| 20260505021523 | 37 | 298 | 4.3 | 0.0 | 0.00 | 0.00 | 0.01 | 87 | 996.8 |
| 20260505020022 | 37 | 285 | 5.2 | 0.0 | 0.00 | 0.00 | 0.01 | 88 | 996.6 |
| 20260505014523 | 37 | 279 | 4.3 | 0.0 | 0.00 | 0.00 | 0.01 | 89 | 996.6 |
| 20260505013019 | 36 | 262 | 4.3 | 0.0 | 0.00 | 0.00 | 0.01 | 89 | 996.6 |
| 20260505011518 | 36 | 244 | 4.3 | 0.0 | 0.00 | 0.00 | 0.01 | 89 | 996.6 |
| 20260505010016 | 36 | 304 | 2.6 | 0.0 | 0.00 | 0.00 | 0.01 | 89 | 996.7 |
| 20260505004517 | 36 | 242 | 3.5 | 0.0 | 0.00 | 0.00 | 0.00 | 89 | 996.7 |
| 20260505003014 | 37 | 263 | 4.3 | 0.0 | 0.00 | 0.00 | 0.00 | 89 | 996.7 |
| 20260505001512 | 37 | 302 | 4.3 | 0.0 | 0.00 | 0.00 | 0.00 | 88 | 996.8 |
| 20260505000013 | 37 | 248 | 2.6 | 0.0 | 0.00 | 0.00 | 0.00 | 87 | 996.9 |